Flag for Burkina Faso Weather past 2 weeks in Koudougou, Burkina Faso

Now
77 °F

Clear.


Feels Like: 79 °F
Forecast: 76 / 99 °F
Wind: 1 mph from West

Location: Ouagadougou Airport

Current Time: Oct 21, 2014 at 4:53:19 AM

Latest Report: Oct 21, 2014 at 4:00 AM


Visibility: 10 mi

Pressure: 29.89 "Hg

Humidity: 79%

Dew point: 70 °F

Location of KoudougouLocation

Historic Weather in Koudougou — Graph

°F

Koudougou temperature yesterday

Maximum temperature yesterday: 95 °F (at 2:00 PM)
Minimum temperature yesterday: 75 °F (at 5:00 AM)
Average temperature yesterday: 84 °F

Past Weeks' High & Low Weather Summary

 TemperatureHumidityPressure
High100 °F (Oct 17, 2:00 PM)100% (Oct 6, 4:00 AM)30.04 "Hg (Oct 6, 4:00 AM)
Low73 °F (Oct 6, 4:00 AM)17% (Oct 17, 3:00 PM)29.80 "Hg (Oct 10, 4:00 PM)
Average85 °F65%29.91 "Hg
* Reported Oct 6 3:00 AM — Oct 21 3:00 AM, Koudougou, Weather by CustomWeather, © 2014

Note: Actual official high and low records may vary slightly from our data, if they occured in-between our weather recording intervals... More about our weather records

Advertising

Koudougou weather history for previous 24 hours

 ConditionsComfort  
Time TempWeatherWind HumidityBarometerVisibility
3:00 AM
Oct 21
77 °FClear.2 mph79%29.89 "Hg10 mi
2:00 AM77 °FClear.1 mph74%29.92 "Hg10 mi
1:00 AM79 °FClear.No wind74%29.92 "Hg10 mi
12:00 AM81 °FClear.2 mph66%29.95 "Hg10 mi
11:00 PM
Oct 20
81 °FClear.6 mph66%29.95 "Hg10 mi
10:00 PM82 °FThunderstorms. Passing clouds.8 mph66%29.95 "HgN/A
9:00 PM84 °FThunderstorms. Passing clouds.1 mph62%29.95 "HgN/A
8:00 PM86 °FThunderstorms. Passing clouds.1 mph59%29.92 "HgN/A
6:00 PM88 °FPassing clouds.5 mph49%29.89 "HgN/A
5:00 PM93 °FPartly sunny.6 mph41%29.89 "HgN/A
4:00 PM95 °FPartly sunny.9 mph34%29.89 "HgN/A
3:00 PM95 °FPartly sunny.9 mph36%29.89 "HgN/A
2:00 PM95 °FPartly sunny.5 mph39%29.89 "HgN/A
1:00 PM93 °FSunny.3 mph41%29.92 "Hg10 mi
12:00 PM91 °FSunny.3 mph49%29.95 "Hg10 mi
11:00 AM90 °FSunny.1 mph52%29.98 "Hg10 mi
10:00 AM86 °FSunny.3 mph59%30.01 "Hg10 mi
9:00 AM82 °FPassing clouds.7 mph62%30.01 "HgN/A
8:00 AM79 °FPartly sunny.7 mph70%30.01 "HgN/A
7:00 AM77 °FPartly sunny.3 mph79%29.98 "HgN/A
6:00 AM75 °FPartly sunny.2 mph83%29.95 "HgN/A
5:00 AM75 °FPassing clouds.No wind78%29.92 "HgN/A
Weather by CustomWeather, © 2014

See weather overviewHow to use our weather pages